Teresina Aeroporto, Brazil

8:25 AM -03 on December 15, 2017 (GMT -0300)
Senador Petronio Portella

Weather History for SBTE - July, 2013

Change the Weather History Date:

Sunday, July 21, 2013

  Actual Average Record
Temperature  
Mean Temperature 85 °F -  
Max Temperature 96 °F 93 °F 98 °F (1998)
Min Temperature 74 °F 72 °F 68 °F (1996)
Cooling Degree Days 20    
Growing Degree Days 35 (Base 50)    
Moisture  
Dew Point 68 °F    
Average Humidity 61    
Maximum Humidity 89    
Minimum Humidity 23    
Precipitation  
Precipitation 0.00 in - - ()
Sea Level Pressure  
Sea Level Pressure 29.87 in    
Wind  
Wind Speed 1 mph ()    
Max Wind Speed 5 mph    
Max Gust Speed -    
Visibility 7.2 miles    
Events      
Averages and records for this station are not official NWS values.
T = Trace of Precipitation, MM = Missing Value Source: Averaged Metar Reports

Daily Weather History Graph

Daily Weather History Graph

Search for Another Location

Airport or City:

Trip Planner

Search our weather history database for the weather conditions in past years. The results will help you decide how hot, cold, wet, or windy it might be!

Date:

Astronomy

Jul. 21, 2013 Rise Set
Actual Time 6:01 AM -03 5:53 PM -03
Civil Twilight 5:39 AM -03 6:15 PM -03
Nautical Twilight 5:13 AM -03 6:41 PM -03
Astronomical Twilight 4:48 AM -03 7:07 PM -03
Moon 4:53 PM -03 (7/21) 4:35 AM -03 (7/21)
Length of Visible Light 12h 36m
Length of Day
11h 52m
Waxing Gibbous, 98% of the Moon is Illuminated
Jul 21
Waxing Gibbous
Jul 22
Full
Jul 29
Last Quarter
Aug 6
New
Aug 14
First Quarter

Hourly Weather History & Observations

Time (-03) Temp. Heat Index Dew Point Humidity Pressure Visibility Wind Dir Wind Speed Gust Speed Precip Events Conditions
12:00 AM 78.8 °F - 69.8 °F 74% 29.89 in - NNE 4.6 mph - N/A   Clear
1:00 AM 78.8 °F - 69.8 °F 74% 29.89 in - Calm Calm - N/A   Clear
2:00 AM 77.0 °F - 71.6 °F 83% 29.86 in - Calm Calm - N/A   Clear
3:00 AM 77 °F - 71 °F 76% 29.87 in 12 mi Calm Calm - -   Partly Cloudy
3:00 AM 77.0 °F - 71.6 °F 83% 29.86 in - Calm Calm - N/A   Clear
4:00 AM 77.0 °F - 71.6 °F 83% 29.86 in - Calm Calm - N/A   Clear
5:00 AM 75.2 °F - 71.6 °F 89% 29.86 in - Calm Calm - N/A   Clear
6:00 AM 75.2 °F - 71.6 °F 89% 29.89 in 3.1 mi Calm Calm - N/A   Mist
6:30 AM 77.0 °F - 73.4 °F 89% 29.89 in 6.2 mi Calm Calm - N/A   Partly Cloudy
7:00 AM 77.0 °F - 73.4 °F 89% 29.92 in 6.2 mi Calm Calm - N/A   Partly Cloudy
8:00 AM 80.6 °F 84.6 °F 71.6 °F 74% 29.95 in 6.2 mi ESE 2.3 mph - N/A   Partly Cloudy
9:00 AM 82 °F - 72 °F 64% 29.96 in 12 mi ESE 4.6 mph - -   Partly Cloudy
9:00 AM 82.4 °F 87.2 °F 71.6 °F 70% 29.95 in 6.2 mi ESE 4.6 mph - N/A   Scattered Clouds
10:00 AM 86.0 °F 90.4 °F 69.8 °F 58% 29.95 in 6.2 mi Calm Calm - N/A   Partly Cloudy
11:00 AM 89.6 °F 93.4 °F 68.0 °F 49% 29.92 in 6.2 mi East 3.5 mph - N/A   Scattered Clouds
12:00 PM 91.4 °F 93.2 °F 64.4 °F 41% 29.92 in 6.2 mi SSE 4.6 mph - N/A   Mostly Cloudy
1:00 PM 93.2 °F 94.9 °F 64.4 °F 38% 29.86 in 6.2 mi Calm Calm - N/A   Partly Cloudy
2:00 PM 95.0 °F 97.0 °F 64.4 °F 36% 29.83 in 6.2 mi WSW 1.2 mph - N/A   Partly Cloudy
3:00 PM 96 °F - 62 °F 23% 29.81 in 12 mi WNW 1.2 mph - -   Scattered Clouds
3:00 PM 95.0 °F 96.0 °F 62.6 °F 34% 29.80 in 6.2 mi WNW 1.2 mph - N/A   Partly Cloudy
4:00 PM 96.8 °F 98.0 °F 62.6 °F 32% 29.80 in 6.2 mi North 2.3 mph - N/A   Partly Cloudy
5:00 PM 95.0 °F 96.0 °F 62.6 °F 34% 29.80 in - NW 2.3 mph - N/A   Clear
6:00 PM 93.2 °F 94.9 °F 64.4 °F 38% 29.80 in - NW 2.3 mph - N/A   Clear
7:00 PM 87.8 °F 91.4 °F 68.0 °F 52% 29.80 in - NNW 2.3 mph - N/A   Clear
8:00 PM 84.2 °F 87.3 °F 68.0 °F 58% 29.83 in - North 2.3 mph - N/A   Clear
9:00 PM 84.2 °F 87.3 °F 68.0 °F 58% 29.86 in - NNE 1.2 mph - N/A   Clear
10:00 PM 82.4 °F 85.4 °F 68.0 °F 62% 29.86 in - NNE 1.2 mph - N/A   Clear
11:00 PM 82.4 °F 85.4 °F 68.0 °F 62% 29.89 in - East 1.2 mph - N/A   Clear